This demonstration page uses our WeatherBlox Daily Observations layout. Learn more.

Left ArrowRight Arrow

Hourly Observations for September 5, 2022

Temp ( °F °C ) Dew Point ( °F °C ) Humidity (%) Winds ( mph kmh ) Pressure ( in mb ) Visibility ( mi km ) Precip ( " mm )
12:55 am 00:55 Clear 67 19.4 62 16.6 84 84 Calm 30.06 1018 10 16 0.00 0.00
1:55 am 01:55 Clear 66 18.9 62 16.7 87 87 Calm 30.06 1018 10 16 0.00 0.00
2:55 am 02:55 Partly Cloudy 65 18.6 61 16.2 86 86 Calm 30.05 1018 10 16 0.00 0.00
3:55 am 03:55 Partly Cloudy 65 18.4 61 16.2 87 87 E 5 7 30.05 1018 10 16 0.00 0.00
4:55 am 04:55 Mostly Clear 64 17.6 60 15.8 89 89 ESE 5 7 30.05 1018 10 16 0.00 0.00
5:55 am 05:55 Mostly Cloudy 64 17.6 61 15.9 90 90 ESE 5 7 30.06 1018 10 16 0.00 0.00
6:55 am 06:55 Mostly Cloudy 64 17.5 61 16 91 91 Calm 30.09 1019 10 16 0.00 0.00
7:55 am 07:55 Mostly Sunny 64 17.7 61 15.9 89 89 E 3 6 30.10 1019 10 16 0.00 0.00
8:55 am 08:55 Partly Cloudy 67 19.5 62 16.9 85 85 ESE 6 9 30.08 1019 10 16 0.00 0.00
9:55 am 09:55 Cloudy 69 20.6 63 17.2 81 81 SE 7 11 30.11 1020 10 16 0.00 0.00
11:55 am 11:55 Cloudy 72 22.4 63 17.1 72 72 SSE 7 11 30.11 1020 10 16 0.00 0.00
12:55 pm 12:55 Mostly Sunny 77 25 64 18 65 65 S 3 6 30.06 1018 10 16 0.00 0.00
1:55 pm 13:55 Mostly Cloudy 77 25 63 17.4 63 63 SSE 10 17 30.07 1018 10 16 0.00 0.00
2:55 pm 14:55 Partly Cloudy 78 25.8 62 16.9 58 58 Calm 30.06 1018 10 16 0.00 0.00
3:55 pm 15:55 Mostly Sunny 81 27 63 17.2 55 55 ESE 5 7 30.03 1017 10 16 0.00 0.00
4:55 pm 16:55 Mostly Sunny 81 27.4 61 16.3 51 51 SE 9 15 30.04 1017 10 16 0.00 0.00
5:55 pm 17:55 Mostly Sunny 81 27.4 61 16 50 50 SSE 7 11 30.02 1017 10 16 0.00 0.00
6:55 pm 18:55 Sunny 79 26 62 16.5 56 56 ESE 7 11 30.02 1017 10 16 0.00 0.00
7:55 pm 19:55 Clear 75 23.9 62 16.9 65 65 ESE 6 9 30.03 1017 10 16 0.00 0.00
8:55 pm 20:55 Clear 72 22.2 62 16.7 71 71 ESE 5 7 30.04 1017 10 16 0.00 0.00
9:55 pm 21:55 Clear 69 20.8 62 16.4 76 76 SE 3 6 30.05 1018 10 16 0.00 0.00
10:56 pm 22:56 Clear 70 21 63 17 78 78 S 6 9 30.01 1016 10 16 0.00 0.00
11:55 pm 23:55 Clear 67 19.2 61 16 82 82 SE 5 7 30.06 1018 10 16 0.00 0.00

Powered by AerisWeather